sat.trackr.live / text

‹ back to catalog

STARLINK-33972

NORAD 63893 · 2025-095D

PAYLOAD ACTIVE UNKNOWN

§ Identity

Operator
Country
US
Launch date
2025-05-10
Launch site
AFETR
Launch vehicle
Mass (kg)
RCS (m²)

Purposes: comms

External: N2YO · Heavens-Above · Gunter

§ Orbital elements

Epoch: 2026-05-25T04:03:45.714240Z

Period
94.27 min
Inclination
42.9997°
Eccentricity
0.0001123
Mean motion
15.27596066 rev/d
Perigee alt
482.2 km
Apogee alt
483.8 km
Semi-major
6,861.1 km
B*
7.4257e-4
RAAN
104.3646°
Arg perigee
258.9721°
Mean anomaly
101.1004°
Rev number
5,948

§ Raw data

STARLINK-339721 63893U 25095D   26145.16927910  .00020238  00000+0  74257-3 0  99952 63893  42.9997 104.3646 0001123 258.9721 101.1004 15.27596066 59486

JSON: /api/v1/satellites/63893 · /tle

For live sub-satellite position, see the globe view (requires WebGL).

§ Visibility from observer

Set your observer location to see the next 7 days of passes ≥ 10°. The values pass through the URL so the page stays shareable.

No JS? Fill the form by hand. The geolocation button needs JavaScript.